• In Romania
  • List of Countries
  • For 7 days
  • Water Temperature
  • Satellite Maps
  • Weather Map
  • Weather Widgets
  • user-avatar
    Login

    Hourly Weather Escaldes-Engordany

    Today, 28 May, Sunday

    Time Temperature Precipitation Wind Pressure Humidity
    00:00 +12°C° 0 mm 1 mps 641 mmHg 87%
    01:00 +11°C° 0 mm 1 mps 641 mmHg 86%
    02:00 +11°C° 0 mm 1 mps 641 mmHg 86%
    03:00 +11°C° 0 mm 1 mps 640 mmHg 86%
    04:00 +12°C° 0 mm 1 mps 641 mmHg 81%
    05:00 +13°C° 0 mm 2 mps 641 mmHg 77%
    06:00 +15°C° 0 mm 2 mps 642 mmHg 71%
    07:00 +17°C° 0 mm 2 mps 643 mmHg 61%
    08:00 +19°C° 0 mm 2 mps 644 mmHg 52%
    09:00 +21°C° 0 mm 2 mps 644 mmHg 42%
    10:00 +22°C° 0 mm 3 mps 645 mmHg 40%
    11:00 +24°C° 0 mm 3 mps 645 mmHg 37%
    12:00 +25°C° 0 mm 3 mps 645 mmHg 34%
    13:00 +25°C° 0 mm 3 mps 645 mmHg 35%
    14:00 +25°C° 0 mm 3 mps 644 mmHg 35%
    15:00 +25°C° 0 mm 3 mps 644 mmHg 36%
    16:00 +22°C° 0 mm 3 mps 644 mmHg 41%
    17:00 +21°C° 0 mm 3 mps 643 mmHg 47%
    18:00 +19°C° 0 mm 2 mps 642 mmHg 52%
    19:00 +17°C° 0 mm 2 mps 642 mmHg 59%
    20:00 +14°C° 0 mm 2 mps 641 mmHg 65%
    21:00 +12°C° 0 mm 2 mps 640 mmHg 71%
    22:00 +12°C° 0 mm 2 mps 640 mmHg 69%
    23:00 +10°C° 0 mm 2 mps 640 mmHg 67%

    Tomorrow, 29 May, Monday

    Time Temperature Precipitation Wind Pressure Humidity
    00:00 +10°C° 0 mm 2 mps 640 mmHg 66%
    01:00 +10°C° 0 mm 2 mps 640 mmHg 61%
    02:00 +10°C° 0 mm 2 mps 639 mmHg 57%
    03:00 +10°C° 0 mm 2 mps 639 mmHg 52%
    04:00 +12°C° 0 mm 1 mps 639 mmHg 53%
    05:00 +12°C° 0 mm 1 mps 640 mmHg 54%
    06:00 +13°C° 0 mm 1 mps 640 mmHg 55%
    07:00 +15°C° 0 mm 2 mps 641 mmHg 50%
    08:00 +17°C° 0 mm 2 mps 641 mmHg 44%
    09:00 +18°C° 0 mm 2 mps 642 mmHg 38%
    10:00 +19°C° 0 mm 2 mps 642 mmHg 36%
    11:00 +20°C° 0 mm 2 mps 642 mmHg 34%
    12:00 +21°C° 0 mm 3 mps 643 mmHg 32%
    13:00 +21°C° 0.1 mm 3 mps 642 mmHg 33%
    14:00 +20°C° 0.1 mm 3 mps 642 mmHg 35%
    15:00 +20°C° 0.1 mm 3 mps 642 mmHg 36%
    16:00 +19°C° 0.2 mm 2 mps 641 mmHg 42%
    17:00 +18°C° 0.2 mm 2 mps 641 mmHg 48%
    18:00 +17°C° 0.2 mm 2 mps 640 mmHg 54%
    19:00 +15°C° 0.1 mm 1 mps 640 mmHg 63%
    20:00 +12°C° 0.1 mm 1 mps 639 mmHg 71%
    21:00 +10°C° 0.1 mm 1 mps 639 mmHg 79%
    22:00 +10°C° 0.1 mm 1 mps 639 mmHg 80%
    23:00 +10°C° 0.1 mm 1 mps 639 mmHg 80%

    Day after tomorrow, 30 May, Tuesday

    Time Temperature Precipitation Wind Pressure Humidity
    00:00 +10°C° 0.1 mm 1 mps 639 mmHg 81%
    01:00 +9°C° 0 mm 1 mps 639 mmHg 82%
    02:00 +9°C° 0 mm 1 mps 638 mmHg 84%
    03:00 +9°C° 0 mm 1 mps 638 mmHg 86%
    04:00 +10°C° 0 mm 1 mps 639 mmHg 83%
    05:00 +11°C° 0 mm 1 mps 639 mmHg 80%
    06:00 +12°C° 0 mm 1 mps 640 mmHg 77%
    07:00 +14°C° 0 mm 1 mps 641 mmHg 69%
    08:00 +15°C° 0 mm 1 mps 642 mmHg 61%
    09:00 +18°C° 0 mm 1 mps 642 mmHg 53%
    10:00 +17°C° 0.2 mm 2 mps 643 mmHg 51%
    11:00 +18°C° 0.2 mm 2 mps 643 mmHg 50%
    12:00 +19°C° 0.2 mm 2 mps 643 mmHg 48%
    13:00 +18°C° 0.3 mm 2 mps 643 mmHg 51%
    14:00 +17°C° 0.3 mm 2 mps 642 mmHg 54%
    15:00 +17°C° 0.3 mm 2 mps 642 mmHg 57%
    16:00 +16°C° 0.2 mm 2 mps 642 mmHg 61%
    17:00 +15°C° 0.2 mm 2 mps 641 mmHg 66%
    18:00 +14°C° 0.2 mm 1 mps 641 mmHg 70%
    19:00 +13°C° 0.1 mm 1 mps 641 mmHg 76%
    20:00 +12°C° 0.1 mm 1 mps 641 mmHg 82%
    21:00 +9°C° 0.1 mm 0 mps 641 mmHg 89%
    22:00 +10°C° 0.1 mm 1 mps 641 mmHg 90%
    23:00 +9°C° 0.1 mm 1 mps 640 mmHg 92%

    31 May, Wednesday

    Time Temperature Precipitation Wind Pressure Humidity
    00:00 +9°C° 0.1 mm 1 mps 640 mmHg 93%
    01:00 +9°C° 0.1 mm 1 mps 640 mmHg 93%
    02:00 +9°C° 0.1 mm 1 mps 640 mmHg 93%
    03:00 +9°C° 0.1 mm 1 mps 640 mmHg 93%
    04:00 +10°C° 0.2 mm 1 mps 641 mmHg 90%
    05:00 +11°C° 0.2 mm 1 mps 641 mmHg 87%
    06:00 +11°C° 0.2 mm 0 mps 642 mmHg 84%
    07:00 +13°C° 0.2 mm 1 mps 642 mmHg 77%
    08:00 +14°C° 0.2 mm 1 mps 643 mmHg 71%
    09:00 +16°C° 0.2 mm 1 mps 643 mmHg 65%
    10:00 +16°C° 0.6 mm 1 mps 643 mmHg 65%
    11:00 +16°C° 0.6 mm 1 mps 643 mmHg 66%
    12:00 +18°C° 0.6 mm 1 mps 643 mmHg 66%
    13:00 +16°C° 1.7 mm 1 mps 642 mmHg 68%
    14:00 +16°C° 1.7 mm 1 mps 642 mmHg 71%
    15:00 +16°C° 1.7 mm 1 mps 642 mmHg 74%
    16:00 +15°C° 1.8 mm 1 mps 642 mmHg 77%
    17:00 +15°C° 1.8 mm 1 mps 641 mmHg 81%
    18:00 +14°C° 1.8 mm 1 mps 641 mmHg 84%
    19:00 +13°C° 0.8 mm 1 mps 641 mmHg 87%
    20:00 +12°C° 0.8 mm 1 mps 641 mmHg 89%
    21:00 +10°C° 0.8 mm 1 mps 641 mmHg 92%
    22:00 +10°C° 0.1 mm 1 mps 640 mmHg 92%
    23:00 +10°C° 0.1 mm 1 mps 640 mmHg 92%

    1 June, Thursday

    Time Temperature Precipitation Wind Pressure Humidity
    00:00 +9°C° 0.1 mm 1 mps 640 mmHg 92%
    01:00 +9°C° 0 mm 1 mps 640 mmHg 92%
    02:00 +8°C° 0 mm 1 mps 639 mmHg 93%
    03:00 +7°C° 0 mm 1 mps 639 mmHg 93%
    04:00 +8°C° 0 mm 0 mps 640 mmHg 90%
    05:00 +10°C° 0 mm 0 mps 640 mmHg 86%
    06:00 +12°C° 0 mm 0 mps 641 mmHg 83%
    07:00 +14°C° 0 mm 1 mps 642 mmHg 76%
    08:00 +16°C° 0 mm 1 mps 643 mmHg 69%
    09:00 +19°C° 0 mm 1 mps 643 mmHg 62%
    10:00 +19°C° 0.2 mm 1 mps 643 mmHg 60%
    11:00 +20°C° 0.2 mm 1 mps 643 mmHg 59%
    12:00 +20°C° 0.2 mm 1 mps 643 mmHg 58%
    13:00 +20°C° 0.3 mm 1 mps 643 mmHg 58%
    14:00 +20°C° 0.3 mm 1 mps 642 mmHg 59%
    15:00 +20°C° 0.3 mm 1 mps 642 mmHg 59%
    16:00 +20°C° 0.2 mm 1 mps 642 mmHg 62%
    17:00 +19°C° 0.2 mm 1 mps 642 mmHg 64%
    18:00 +19°C° 0.2 mm 1 mps 641 mmHg 67%
    19:00 +15°C° 0.1 mm 1 mps 641 mmHg 73%
    20:00 +13°C° 0.1 mm 1 mps 640 mmHg 80%
    21:00 +10°C° 0.1 mm 1 mps 639 mmHg 87%
    22:00 +10°C° 0 mm 1 mps 639 mmHg 87%
    23:00 +9°C° 0 mm 1 mps 639 mmHg 87%

    2 June, Friday

    Time Temperature Precipitation Wind Pressure Humidity
    00:00 +9°C° 0 mm 1 mps 639 mmHg 87%
    01:00 +9°C° 0 mm 1 mps 639 mmHg 87%
    02:00 +9°C° 0 mm 1 mps 638 mmHg 86%
    03:00 +9°C° 0 mm 1 mps 638 mmHg 86%
    04:00 +11°C° 0 mm 1 mps 639 mmHg 82%
    05:00 +13°C° 0 mm 1 mps 640 mmHg 78%
    06:00 +14°C° 0 mm 1 mps 641 mmHg 73%
    07:00 +18°C° 0 mm 1 mps 642 mmHg 65%
    08:00 +20°C° 0 mm 1 mps 642 mmHg 56%
    09:00 +22°C° 0 mm 1 mps 643 mmHg 48%
    10:00 +22°C° 0.2 mm 1 mps 643 mmHg 49%
    11:00 +23°C° 0.2 mm 1 mps 643 mmHg 50%
    12:00 +23°C° 0.2 mm 1 mps 643 mmHg 51%
    13:00 +22°C° 0.6 mm 1 mps 642 mmHg 55%
    14:00 +22°C° 0.6 mm 1 mps 642 mmHg 58%
    15:00 +21°C° 0.6 mm 1 mps 642 mmHg 62%
    16:00 +20°C° 0.8 mm 1 mps 641 mmHg 66%
    17:00 +20°C° 0.8 mm 1 mps 641 mmHg 71%
    18:00 +19°C° 0.8 mm 1 mps 641 mmHg 75%
    19:00 +16°C° 0.7 mm 1 mps 641 mmHg 81%
    20:00 +14°C° 0.7 mm 1 mps 640 mmHg 86%
    21:00 +12°C° 0.7 mm 1 mps 640 mmHg 92%
    22:00 +12°C° 0.5 mm 1 mps 640 mmHg 93%
    23:00 +11°C° 0.5 mm 1 mps 640 mmHg 94%
    Show more